Location: Tamazert
(32.6352°N, 5.2072°W)
Time: 03:59:49
(UTC+00:00)

Vanguard 1 Rocket - Pass Details

Date: 11 October 2022
Orbit: 650 x 4225 km, 34.3° (Epoch: 05 December)

Event Time Altitude Azimuth Distance (km) Brightness Sun altitude
Rises 18:32:13 0° 254° (WSW) 8,393 14.2 -9.1°
Reaches altitude 10° 18:38:01 10° 255° (WSW) 7,427 13.5 -10.3°
Maximum altitude 19:04:13 89° 344° (NNW) 3,426 10.2 -15.8°
Enters shadow 19:16:58 22° 80° (E) 4,258 10.2 -18.5°
Drops below altitude 10° 19:19:51 10° 80° (E) 4,826 - -19.1°
Sets 19:22:43 0° 81° (E) 5,474 - -19.7°
